Jenks, OK

7:04 AM CST on February 24, 2017 (GMT -0600)
Jones Jr.

Weather History for KRVS - October, 2012

Change the Weather History Date:

Friday, October 26, 2012

  Actual Average (KTUL) Record (KTUL)
Temperature  
Mean Temperature 46 °F -  
Max Temperature 52 °F 70 °F 90 °F (1950)
Min Temperature 39 °F 47 °F 27 °F (1957)
Degree Days  
Heating Degree Days 20    
Moisture  
Dew Point 28 °F    
Average Humidity 56    
Maximum Humidity 75    
Minimum Humidity 38    
Precipitation  
Precipitation 0.00 in - - ()
Sea Level Pressure  
Sea Level Pressure 30.37 in    
Wind  
Wind Speed 12 mph (NNE)    
Max Wind Speed 20 mph    
Max Gust Speed 28 mph    
Visibility 10 miles    
Events      
Averages and records for this station are not official NWS values.
T = Trace of Precipitation, MM = Missing Value Source: NWS Daily Summary

Daily Weather History Graph

Daily Weather History Graph

Search for Another Location

Airport or City:

Trip Planner

Search our weather history database for the weather conditions in past years. The results will help you decide how hot, cold, wet, or windy it might be!

Date:

Astronomy

Oct. 26, 2012 Rise Set
Actual Time 7:41 AM CDT 6:33 PM CDT
Civil Twilight 7:14 AM CDT 7:00 PM CDT
Nautical Twilight 6:44 AM CDT 7:30 PM CDT
Astronomical Twilight 6:15 AM CDT 7:59 PM CDT
Moon 4:46 PM CDT (10/26) 4:43 AM CDT (10/26)
Length of Visible Light 11h 45m
Length of Day
10h 52m
Waxing Gibbous, 91% of the Moon is Illuminated
Oct 26
Waxing Gibbous
Oct 29
Full
Nov 6
Last Quarter
Nov 13
New
Nov 20
First Quarter

Hourly Weather History & Observations

Time (CDT) Temp. Windchill Dew Point Humidity Pressure Visibility Wind Dir Wind Speed Gust Speed Precip Events Conditions
1:53 AM 44.1 °F 38.6 °F 34.0 °F 68% 30.27 in 10.0 mi North 10.4 mph 19.6 mph N/A   Clear
2:53 AM 43.0 °F 36.8 °F 33.1 °F 68% 30.28 in 10.0 mi NNE 11.5 mph 20.7 mph N/A   Clear
3:53 AM 41.0 °F 35.8 °F 32.0 °F 70% 30.29 in 10.0 mi NNE 8.1 mph 17.3 mph N/A   Clear
4:24 AM 39.2 °F 30.8 °F 32.0 °F 75% 30.27 in 10.0 mi NNE 15.0 mph 18.4 mph N/A   Mostly Cloudy
4:53 AM 39.9 °F 31.1 °F 30.9 °F 70% 30.29 in 10.0 mi NNE 17.3 mph 25.3 mph N/A   Mostly Cloudy
5:53 AM 39.9 °F 32.9 °F 30.0 °F 68% 30.32 in 10.0 mi North 11.5 mph 24.2 mph N/A   Overcast
6:53 AM 39.9 °F 31.8 °F 28.9 °F 65% 30.33 in 10.0 mi North 15.0 mph 24.2 mph N/A   Overcast
7:53 AM 39.0 °F 32.3 °F 28.9 °F 67% 30.37 in 10.0 mi North 10.4 mph 20.7 mph N/A   Overcast
8:53 AM 39.9 °F 31.8 °F 28.9 °F 65% 30.39 in 10.0 mi North 15.0 mph 24.2 mph N/A   Overcast
9:53 AM 41.0 °F 31.9 °F 28.0 °F 60% 30.42 in 10.0 mi NNE 19.6 mph 27.6 mph N/A   Overcast
10:53 AM 43.0 °F 35.7 °F 28.0 °F 56% 30.44 in 10.0 mi NNE 15.0 mph 25.3 mph N/A   Mostly Cloudy
11:08 AM 44.6 °F 38.8 °F 28.4 °F 53% 30.41 in 10.0 mi North 11.5 mph 23.0 mph N/A   Mostly Cloudy
11:53 AM 44.1 °F 37.7 °F 28.0 °F 53% 30.45 in 10.0 mi North 12.7 mph 23.0 mph N/A   Overcast
12:53 PM 48.9 °F - 28.0 °F 44% 30.43 in 10.0 mi North 13.8 mph - N/A   Clear
1:53 PM 48.9 °F - 27.0 °F 43% 30.39 in 10.0 mi NNE 18.4 mph 25.3 mph N/A   Clear
2:53 PM 50.0 °F - 27.0 °F 41% 30.38 in 10.0 mi North 13.8 mph 24.2 mph N/A   Clear
3:53 PM 52.0 °F - 27.0 °F 38% 30.36 in 10.0 mi NNE 12.7 mph 19.6 mph N/A   Clear
4:53 PM 51.1 °F - 26.1 °F 38% 30.36 in 10.0 mi North 10.4 mph 18.4 mph N/A   Clear
5:53 PM 48.9 °F - 26.1 °F 41% 30.36 in 10.0 mi North 10.4 mph 17.3 mph N/A   Clear
6:53 PM 46.9 °F - 25.0 °F 42% 30.39 in 10.0 mi NNE 8.1 mph 17.3 mph N/A   Clear
7:53 PM 45.0 °F 41.2 °F 27.0 °F 49% 30.40 in 10.0 mi North 6.9 mph - N/A   Clear
8:53 PM 44.1 °F 40.1 °F 27.0 °F 51% 30.40 in 10.0 mi North 6.9 mph - N/A   Clear
9:53 PM 43.0 °F 38.8 °F 27.0 °F 53% 30.41 in 10.0 mi North 6.9 mph - N/A   Clear
10:53 PM 41.0 °F 35.8 °F 27.0 °F 57% 30.41 in 10.0 mi North 8.1 mph - N/A   Clear
11:53 PM 39.0 °F 36.8 °F 27.0 °F 62% 30.41 in 10.0 mi North 3.5 mph - N/A   Clear